BEL8WD EBBR-LFBO

Flight info

Callsign BEL8WD
Flight time 1h 22m
Altitude 33000
Route CIV N872 LESDO DCT KOVIN DCT DUCRA UM728 RESMI UN857 DISAK/N0456F350 DCT DIRMO DCT GUERE DCT EVPOK DCT NARAK
Aircraft A320/M-SDE3FGHIRWY/LB1

Departure

Time 2026-05-05 05:37
Airport Brussels Airport (EBBR)

Arrival

Time 2026-05-05 07:00
Airport Toulouse-Blagnac Airport (LFBO)
Time Latitude Longitude Altitude Speed Heading
2026-05-05 05:10 50.90364 4.48429 138 ft 0 kts 153°
2026-05-05 05:25 50.90379 4.48417 138 ft 3 kts 153°
2026-05-05 05:26 50.90398 4.48403 138 ft 3 kts 151°
2026-05-05 05:26 50.90415 4.48387 138 ft 3 kts 148°
2026-05-05 05:26 50.90432 4.48369 138 ft 3 kts 141°
2026-05-05 05:26 50.90446 4.48349 138 ft 2 kts 130°
2026-05-05 05:27 50.90449 4.48344 138 ft 0 kts 128°
2026-05-05 05:34 50.90448 4.48345 138 ft 0 kts 128°
2026-05-05 05:34 50.90451 4.48401 137 ft 9 kts 83°
2026-05-05 05:34 50.90479 4.48510 136 ft 17 kts 60°
2026-05-05 05:34 50.90570 4.48620 133 ft 16 kts 19°
2026-05-05 05:35 50.90641 4.48774 130 ft 20 kts 64°
2026-05-05 05:35 50.90707 4.49015 125 ft 28 kts 66°
2026-05-05 05:35 50.90786 4.49285 126 ft 26 kts 66°
2026-05-05 05:35 50.90860 4.49550 128 ft 26 kts 66°
2026-05-05 05:36 50.90939 4.49806 124 ft 23 kts 56°
2026-05-05 05:36 50.91066 4.49928 120 ft 22 kts 20°
2026-05-05 05:36 50.91139 4.49886 122 ft 2 kts 243°
2026-05-05 05:36 50.91127 4.49848 122 ft 23 kts 245°
2026-05-05 05:37 50.90952 4.49228 133 ft 96 kts 245°
2026-05-05 05:37 50.90592 4.47982 143 ft 150 kts 245°
2026-05-05 05:37 50.90109 4.46367 519 ft 164 kts 249°
2026-05-05 05:37 50.89605 4.44698 1160 ft 169 kts 246°
2026-05-05 05:38 50.89194 4.42804 1753 ft 178 kts 258°
2026-05-05 05:38 50.88855 4.40846 2308 ft 189 kts 257°
2026-05-05 05:38 50.88480 4.38850 2752 ft 200 kts 255°
2026-05-05 05:38 50.87978 4.36705 3192 ft 219 kts 240°
2026-05-05 05:39 50.86799 4.34951 3380 ft 251 kts 207°
2026-05-05 05:39 50.85107 4.33793 3743 ft 279 kts 202°
2026-05-05 05:39 50.83326 4.32596 4718 ft 276 kts 203°
2026-05-05 05:39 50.81579 4.31342 5783 ft 276 kts 204°
2026-05-05 05:40 50.79799 4.30056 6526 ft 287 kts 205°
2026-05-05 05:40 50.78006 4.28561 6987 ft 299 kts 213°
2026-05-05 05:40 50.76597 4.26235 7922 ft 295 kts 239°
2026-05-05 05:40 50.75615 4.23392 8849 ft 295 kts 241°
2026-05-05 05:41 50.74554 4.20590 9729 ft 300 kts 238°
2026-05-05 05:41 50.73347 4.17826 10328 ft 313 kts 235°
2026-05-05 05:41 50.72039 4.14981 10853 ft 325 kts 234°
2026-05-05 05:41 50.70677 4.12063 11413 ft 338 kts 234°
2026-05-05 05:42 50.69245 4.09028 11795 ft 354 kts 233°
2026-05-05 05:42 50.67704 4.05873 12159 ft 370 kts 232°
2026-05-05 05:42 50.66095 4.02638 12699 ft 379 kts 232°
2026-05-05 05:42 50.64418 3.99411 13427 ft 382 kts 230°
2026-05-05 05:43 50.62732 3.96188 14219 ft 381 kts 231°
2026-05-05 05:43 50.61045 3.92980 14983 ft 380 kts 230°
2026-05-05 05:43 50.59335 3.89786 15629 ft 384 kts 229°
2026-05-05 05:43 50.57496 3.86605 16104 ft 392 kts 225°
2026-05-05 05:44 50.55549 3.83535 16476 ft 402 kts 222°
2026-05-05 05:44 50.53452 3.80562 16958 ft 408 kts 218°
2026-05-05 05:44 50.51159 3.78096 17738 ft 403 kts 207°
2026-05-05 05:44 50.48621 3.76280 18459 ft 401 kts 200°
2026-05-05 05:45 50.45988 3.74786 19068 ft 402 kts 197°
2026-05-05 05:45 50.43231 3.73627 19475 ft 409 kts 191°
2026-05-05 05:45 50.40396 3.72934 19725 ft 418 kts 184°
2026-05-05 05:45 50.37491 3.72551 20241 ft 417 kts 190°
2026-05-05 05:46 50.35672 3.71680 20898 ft 405 kts 197°
2026-05-05 05:46 50.33052 3.69984 20932 ft 411 kts 208°
2026-05-05 05:46 50.30613 3.67454 21204 ft 420 kts 216°
2026-05-05 05:46 50.28301 3.64795 21896 ft 416 kts 214°
2026-05-05 05:47 50.25901 3.62263 22395 ft 418 kts 212°
2026-05-05 05:47 50.23402 3.59895 22810 ft 420 kts 207°
2026-05-05 05:47 50.20768 3.57923 23438 ft 418 kts 203°
2026-05-05 05:47 50.18082 3.56186 23855 ft 420 kts 201°
2026-05-05 05:48 50.15347 3.54557 24167 ft 423 kts 199°
2026-05-05 05:48 50.12528 3.53122 24434 ft 428 kts 196°
2026-05-05 05:48 50.09695 3.51715 24863 ft 427 kts 198°
2026-05-05 05:48 50.06903 3.50115 25257 ft 428 kts 201°
2026-05-05 05:49 50.04146 3.48342 25591 ft 430 kts 202°
2026-05-05 05:49 50.01379 3.46567 25907 ft 432 kts 203°
2026-05-05 05:49 49.98644 3.44597 26181 ft 434 kts 206°
2026-05-05 05:49 49.95950 3.42438 26470 ft 436 kts 207°
2026-05-05 05:50 49.93267 3.40246 26883 ft 434 kts 206°
2026-05-05 05:50 49.90559 3.38214 27363 ft 431 kts 204°
2026-05-05 05:50 49.87809 3.36384 27717 ft 431 kts 201°
2026-05-05 05:50 49.84956 3.34875 27840 ft 436 kts 196°
2026-05-05 05:51 49.82076 3.33366 28117 ft 435 kts 202°
2026-05-05 05:51 49.79336 3.31412 28506 ft 431 kts 205°
2026-05-05 05:51 49.76679 3.29341 29032 ft 424 kts 205°
2026-05-05 05:51 49.74208 3.27158 29905 ft 407 kts 211°
2026-05-05 05:52 49.69037 3.23412 29975 ft 416 kts 202°
2026-05-05 05:52 49.63547 3.20241 30126 ft 426 kts 197°
2026-05-05 05:53 49.60757 3.18693 30338 ft 426 kts 202°
2026-05-05 05:53 49.58056 3.16827 30636 ft 424 kts 205°
2026-05-05 05:53 49.55422 3.14815 30919 ft 422 kts 206°
2026-05-05 05:53 49.52799 3.12766 31142 ft 423 kts 206°
2026-05-05 05:54 49.47455 3.08810 31217 ft 430 kts 204°
2026-05-05 05:54 49.44805 3.06712 31434 ft 429 kts 208°
2026-05-05 05:54 49.42237 3.04381 31615 ft 429 kts 210°
2026-05-05 05:55 49.39732 3.01891 31824 ft 428 kts 212°
2026-05-05 05:55 49.37285 2.99321 32113 ft 425 kts 213°
2026-05-05 05:55 49.34872 2.96714 32392 ft 423 kts 213°
2026-05-05 05:55 49.32463 2.94138 32567 ft 423 kts 212°
2026-05-05 05:56 49.27531 2.89101 32572 ft 429 kts 211°
2026-05-05 05:56 49.25020 2.86621 32716 ft 429 kts 210°
2026-05-05 05:56 49.22526 2.84204 32854 ft 420 kts 210°
2026-05-05 05:57 49.20051 2.81856 32748 ft 418 kts 209°
2026-05-05 05:57 49.17572 2.79558 32545 ft 415 kts 209°
2026-05-05 05:57 49.12648 2.74825 32670 ft 422 kts 211°
2026-05-05 05:58 49.10195 2.72345 32872 ft 419 kts 211°
2026-05-05 05:58 49.07781 2.69862 32941 ft 418 kts 212°
2026-05-05 05:58 49.03013 2.64800 32900 ft 418 kts 212°
2026-05-05 05:59 48.98218 2.59772 32915 ft 419 kts 211°
2026-05-05 05:59 48.93314 2.54990 32833 ft 418 kts 210°
2026-05-05 06:00 48.88397 2.50258 32910 ft 419 kts 210°
2026-05-05 06:00 48.83444 2.45598 32898 ft 418 kts 209°
2026-05-05 06:01 48.78537 2.40877 32807 ft 420 kts 212°
2026-05-05 06:01 48.73747 2.35794 32934 ft 420 kts 214°
2026-05-05 06:02 48.71400 2.33168 33145 ft 419 kts 214°
2026-05-05 06:02 48.69036 2.30590 33179 ft 419 kts 212°
2026-05-05 06:02 48.66615 2.28131 32972 ft 418 kts 211°
2026-05-05 06:02 48.64832 2.26398 32827 ft 416 kts 210°
2026-05-05 06:03 48.59860 2.21886 32891 ft 419 kts 208°
2026-05-05 06:03 48.54838 2.17393 32805 ft 416 kts 198°
2026-05-05 06:04 48.52044 2.16451 32843 ft 414 kts 187°
2026-05-05 06:04 48.49176 2.15980 32893 ft 415 kts 186°
2026-05-05 06:04 48.43454 2.14910 32886 ft 413 kts 188°
2026-05-05 06:05 48.37806 2.13337 32948 ft 413 kts 191°
2026-05-05 06:05 48.32212 2.11389 33005 ft 413 kts 193°
2026-05-05 06:06 48.26591 2.10333 32846 ft 410 kts 174°
2026-05-05 06:06 48.20940 2.11681 32789 ft 412 kts 172°
2026-05-05 06:07 48.15238 2.12702 32917 ft 412 kts 174°
2026-05-05 06:07 48.09541 2.13788 32951 ft 413 kts 173°
2026-05-05 06:08 48.03796 2.14234 32849 ft 414 kts 179°
2026-05-05 06:08 47.98050 2.14165 33151 ft 410 kts 181°
2026-05-05 06:09 47.95189 2.14071 33363 ft 413 kts 180°
2026-05-05 06:09 47.92309 2.14085 32798 ft 410 kts 178°
2026-05-05 06:09 47.89458 2.14232 32937 ft 412 kts 176°
2026-05-05 06:09 47.86587 2.14464 32830 ft 415 kts 176°
2026-05-05 06:10 47.80815 2.15014 32851 ft 416 kts 176°
2026-05-05 06:10 47.75026 2.15445 32681 ft 418 kts 177°
2026-05-05 06:11 47.72126 2.15627 32562 ft 419 kts 177°
2026-05-05 06:11 47.69240 2.15782 32600 ft 419 kts 178°
2026-05-05 06:11 47.63402 2.15964 32732 ft 419 kts 178°
2026-05-05 06:12 47.57573 2.16120 32748 ft 419 kts 179°
2026-05-05 06:12 47.54660 2.16180 32615 ft 419 kts 178°
2026-05-05 06:12 47.51753 2.16330 32614 ft 421 kts 177°
2026-05-05 06:13 47.48816 2.16530 32749 ft 421 kts 177°
2026-05-05 06:13 47.45910 2.16701 32905 ft 420 kts 178°
2026-05-05 06:13 47.40058 2.16972 32865 ft 419 kts 178°
2026-05-05 06:14 47.37136 2.17089 32755 ft 420 kts 178°
2026-05-05 06:14 47.34213 2.17225 32750 ft 421 kts 177°
2026-05-05 06:14 47.28360 2.17725 32882 ft 421 kts 174°
2026-05-05 06:15 47.22519 2.18506 32800 ft 422 kts 175°
2026-05-05 06:15 47.16659 2.18926 32839 ft 422 kts 178°
2026-05-05 06:16 47.10789 2.18964 32901 ft 422 kts 178°
2026-05-05 06:16 47.04922 2.18603 32894 ft 422 kts 183°
2026-05-05 06:17 46.99069 2.17984 33045 ft 422 kts 183°
2026-05-05 06:17 46.93218 2.17197 32769 ft 423 kts 185°
2026-05-05 06:18 46.90295 2.16694 32635 ft 422 kts 185°
2026-05-05 06:18 46.87372 2.16238 32730 ft 423 kts 184°
2026-05-05 06:18 46.84440 2.15817 32861 ft 424 kts 184°
2026-05-05 06:18 46.81498 2.15431 33006 ft 423 kts 183°
2026-05-05 06:19 46.78564 2.15151 32904 ft 423 kts 181°
2026-05-05 06:19 46.75620 2.14995 32708 ft 423 kts 180°
2026-05-05 06:19 46.69739 2.14782 32805 ft 423 kts 181°
2026-05-05 06:20 46.66800 2.14599 32929 ft 423 kts 182°
2026-05-05 06:20 46.63867 2.14322 33024 ft 423 kts 183°
2026-05-05 06:20 46.58017 2.13410 32924 ft 423 kts 186°
2026-05-05 06:21 46.55098 2.12737 32762 ft 424 kts 188°
2026-05-05 06:21 46.52207 2.11934 32712 ft 424 kts 189°
2026-05-05 06:21 46.49312 2.11084 32819 ft 424 kts 190°
2026-05-05 06:21 46.46407 2.10330 33018 ft 424 kts 187°
2026-05-05 06:22 46.40565 2.09315 33008 ft 423 kts 185°
2026-05-05 06:22 46.34698 2.08364 32911 ft 424 kts 185°
2026-05-05 06:23 46.28847 2.07382 32817 ft 424 kts 185°
2026-05-05 06:23 46.22993 2.06302 32766 ft 424 kts 186°
2026-05-05 06:24 46.17161 2.04931 32805 ft 425 kts 189°
2026-05-05 06:24 46.11751 2.01734 32999 ft 430 kts 213°
2026-05-05 06:25 46.06910 1.96633 32866 ft 432 kts 213°
2026-05-05 06:25 46.02022 1.91608 32763 ft 433 kts 212°
2026-05-05 06:26 45.97252 1.86708 32880 ft 433 kts 213°
2026-05-05 06:26 45.94800 1.84087 33064 ft 433 kts 214°
2026-05-05 06:26 45.92387 1.81534 33100 ft 430 kts 210°
2026-05-05 06:27 45.89831 1.79515 32884 ft 423 kts 208°
2026-05-05 06:27 45.84859 1.75442 32856 ft 407 kts 209°
2026-05-05 06:27 45.82495 1.73083 33029 ft 415 kts 214°
2026-05-05 06:28 45.80137 1.70810 32910 ft 398 kts 213°
2026-05-05 06:28 45.77900 1.68443 33208 ft 407 kts 214°
2026-05-05 06:28 45.75623 1.65903 33090 ft 422 kts 216°
2026-05-05 06:28 45.73314 1.63242 32912 ft 427 kts 216°
2026-05-05 06:29 45.70996 1.60568 32858 ft 430 kts 216°
2026-05-05 06:29 45.66223 1.55416 32869 ft 429 kts 208°
2026-05-05 06:30 45.61816 1.52213 32893 ft 428 kts 204°
2026-05-05 06:30 45.59199 1.50168 33036 ft 430 kts 208°
2026-05-05 06:30 45.56655 1.47929 33181 ft 430 kts 211°
2026-05-05 06:30 45.54211 1.45506 33038 ft 431 kts 214°
2026-05-05 06:31 45.51841 1.42826 32829 ft 431 kts 214°
2026-05-05 06:31 45.49341 1.40501 32937 ft 428 kts 205°
2026-05-05 06:31 45.46546 1.39359 32935 ft 413 kts 168°
2026-05-05 06:31 45.43740 1.40237 33045 ft 417 kts 171°
2026-05-05 06:32 45.40837 1.40698 33046 ft 422 kts 176°
2026-05-05 06:32 45.34957 1.41377 32871 ft 426 kts 173°
2026-05-05 06:33 45.29133 1.42970 32761 ft 427 kts 167°
2026-05-05 06:33 45.23404 1.45178 32912 ft 428 kts 166°
2026-05-05 06:34 45.17638 1.47285 33026 ft 428 kts 168°
2026-05-05 06:34 45.11820 1.49146 33071 ft 429 kts 169°
2026-05-05 06:35 45.05953 1.50818 33088 ft 430 kts 170°
2026-05-05 06:35 45.00091 1.52449 32919 ft 428 kts 169°
2026-05-05 06:36 44.94268 1.54249 32942 ft 429 kts 169°
2026-05-05 06:36 44.88436 1.56044 33139 ft 429 kts 170°
2026-05-05 06:36 44.85510 1.56857 33302 ft 429 kts 171°
2026-05-05 06:37 44.82577 1.57615 33289 ft 428 kts 172°
2026-05-05 06:37 44.76692 1.58873 33279 ft 427 kts 174°
2026-05-05 06:38 44.70969 1.60467 33388 ft 418 kts 142°
2026-05-05 06:38 44.68406 1.62037 33383 ft 404 kts 169°
2026-05-05 06:38 44.65609 1.62956 33291 ft 417 kts 168°
2026-05-05 06:38 44.62758 1.64000 32517 ft 427 kts 167°
2026-05-05 06:39 44.59896 1.65125 31362 ft 428 kts 166°
2026-05-05 06:39 44.57026 1.66275 30193 ft 429 kts 166°
2026-05-05 06:39 44.54149 1.67402 28716 ft 430 kts 167°
2026-05-05 06:39 44.51297 1.68483 26098 ft 436 kts 166°
2026-05-05 06:40 44.48409 1.69580 24687 ft 431 kts 167°
2026-05-05 06:40 44.45491 1.70521 23801 ft 428 kts 170°
2026-05-05 06:40 44.42581 1.71271 23009 ft 423 kts 172°
2026-05-05 06:40 44.39696 1.71943 21917 ft 418 kts 172°
2026-05-05 06:41 44.36839 1.72600 21095 ft 414 kts 173°
2026-05-05 06:41 44.34007 1.73208 20244 ft 408 kts 176°
2026-05-05 06:41 44.31198 1.73118 19322 ft 402 kts 187°
2026-05-05 06:41 44.28457 1.72529 18595 ft 397 kts 193°
2026-05-05 06:42 44.25850 1.71360 17570 ft 393 kts 206°
2026-05-05 06:42 44.23505 1.69379 16236 ft 400 kts 215°
2026-05-05 06:42 44.21286 1.67176 16090 ft 388 kts 216°
2026-05-05 06:42 44.19106 1.64970 15963 ft 384 kts 216°
2026-05-05 06:43 44.16946 1.62783 15851 ft 386 kts 216°
2026-05-05 06:43 44.14792 1.60600 15095 ft 381 kts 217°
2026-05-05 06:43 44.12662 1.58417 14514 ft 378 kts 217°
2026-05-05 06:43 44.10559 1.56231 14094 ft 377 kts 217°
2026-05-05 06:44 44.08418 1.54132 13851 ft 376 kts 213°
2026-05-05 06:44 44.06165 1.52380 13797 ft 376 kts 207°
2026-05-05 06:44 44.03854 1.50655 13407 ft 376 kts 210°
2026-05-05 06:44 44.01600 1.48856 12768 ft 372 kts 211°
2026-05-05 06:45 43.99400 1.47017 12091 ft 366 kts 213°
2026-05-05 06:45 43.97249 1.45171 11351 ft 361 kts 213°
2026-05-05 06:45 43.95136 1.43331 10522 ft 356 kts 214°
2026-05-05 06:45 43.93014 1.43735 9592 ft 316 kts 169°
2026-05-05 06:46 43.91061 1.43603 8588 ft 275 kts 189°
2026-05-05 06:46 43.89184 1.43285 7553 ft 269 kts 192°
2026-05-05 06:46 43.87364 1.42791 6670 ft 264 kts 195°
2026-05-05 06:46 43.85568 1.42214 6075 ft 264 kts 193°
2026-05-05 06:47 43.83705 1.42034 5973 ft 271 kts 178°
2026-05-05 06:47 43.81854 1.42572 6167 ft 274 kts 161°
2026-05-05 06:47 43.80169 1.43813 6777 ft 282 kts 148°
2026-05-05 06:47 43.78654 1.45522 6688 ft 284 kts 141°
2026-05-05 06:48 43.77156 1.47280 6597 ft 279 kts 142°
2026-05-05 06:48 43.75642 1.48954 6813 ft 279 kts 144°
2026-05-05 06:48 43.74064 1.50605 6352 ft 284 kts 145°
2026-05-05 06:48 43.72496 1.52248 5747 ft 283 kts 144°
2026-05-05 06:49 43.70913 1.53896 5067 ft 286 kts 144°
2026-05-05 06:49 43.69311 1.55516 4588 ft 282 kts 145°
2026-05-05 06:49 43.67753 1.57087 4516 ft 275 kts 144°
2026-05-05 06:49 43.66215 1.58645 4335 ft 274 kts 145°
2026-05-05 06:50 43.64678 1.60159 3969 ft 272 kts 146°
2026-05-05 06:50 43.63141 1.61636 3667 ft 268 kts 146°
2026-05-05 06:50 43.61529 1.62936 3243 ft 268 kts 156°
2026-05-05 06:50 43.59749 1.63474 2945 ft 258 kts 182°
2026-05-05 06:51 43.58049 1.63086 2899 ft 243 kts 194°
2026-05-05 06:51 43.56396 1.62655 2936 ft 241 kts 190°
2026-05-05 06:51 43.54713 1.62367 3360 ft 242 kts 187°
2026-05-05 06:51 43.53000 1.62118 3239 ft 245 kts 188°
2026-05-05 06:52 43.51305 1.61855 3020 ft 245 kts 188°
2026-05-05 06:52 43.49623 1.61574 2687 ft 241 kts 189°
2026-05-05 06:52 43.47969 1.61253 2366 ft 240 kts 190°
2026-05-05 06:52 43.46322 1.60887 1895 ft 238 kts 196°
2026-05-05 06:53 43.45399 1.59427 2236 ft 217 kts 270°
2026-05-05 06:53 43.45863 1.57484 2421 ft 207 kts 300°
2026-05-05 06:53 43.46618 1.55902 2491 ft 190 kts 304°
2026-05-05 06:53 43.47325 1.54507 2683 ft 163 kts 305°
2026-05-05 06:54 43.47935 1.53326 2790 ft 137 kts 306°
2026-05-05 06:54 43.48484 1.52341 2766 ft 122 kts 308°
2026-05-05 06:54 43.49013 1.51447 2581 ft 118 kts 308°
2026-05-05 06:54 43.49530 1.50592 2440 ft 114 kts 310°
2026-05-05 06:55 43.50045 1.49784 2416 ft 112 kts 311°
2026-05-05 06:55 43.50585 1.48998 2420 ft 112 kts 314°
2026-05-05 06:55 43.51148 1.48255 2443 ft 112 kts 316°
2026-05-05 06:55 43.51709 1.47513 2490 ft 112 kts 316°
2026-05-05 06:56 43.52366 1.46922 2473 ft 113 kts 332°
2026-05-05 06:56 43.53083 1.46469 2468 ft 114 kts 333°
2026-05-05 06:56 43.53804 1.46019 2468 ft 114 kts 332°
2026-05-05 06:56 43.54485 1.45455 2451 ft 114 kts 317°
2026-05-05 06:57 43.55010 1.44638 2335 ft 114 kts 309°
2026-05-05 06:57 43.55581 1.43878 2186 ft 114 kts 319°
2026-05-05 06:57 43.56184 1.43173 2027 ft 114 kts 317°
2026-05-05 06:57 43.56764 1.42435 1849 ft 113 kts 316°
2026-05-05 06:58 43.57381 1.41756 1675 ft 114 kts 323°
2026-05-05 06:58 43.58051 1.41182 1474 ft 113 kts 327°
2026-05-05 06:58 43.58691 1.40540 1382 ft 114 kts 319°
2026-05-05 06:58 43.59318 1.39869 1302 ft 115 kts 323°
2026-05-05 06:59 43.59972 1.39224 1069 ft 116 kts 321°
2026-05-05 06:59 43.60626 1.38560 890 ft 117 kts 321°
2026-05-05 06:59 43.61274 1.37885 713 ft 117 kts 319°
2026-05-05 06:59 43.61915 1.37197 554 ft 116 kts 320°
2026-05-05 07:00 43.62539 1.36553 494 ft 101 kts 320°
2026-05-05 07:00 43.62968 1.36087 492 ft 54 kts 322°
2026-05-05 07:00 43.63148 1.35900 492 ft 22 kts 324°
2026-05-05 07:00 43.63310 1.35741 495 ft 35 kts 324°
2026-05-05 07:01 43.63525 1.35522 490 ft 35 kts 330°
2026-05-05 07:01 43.63652 1.35637 489 ft 29 kts 54°
2026-05-05 07:01 43.63772 1.35849 494 ft 17 kts 52°
2026-05-05 07:01 43.63813 1.35999 491 ft 17 kts 133°
2026-05-05 07:02 43.63674 1.36131 492 ft 31 kts 142°
2026-05-05 07:02 43.63476 1.36336 489 ft 35 kts 143°
2026-05-05 07:02 43.63264 1.36550 487 ft 24 kts 142°
2026-05-05 07:02 43.63298 1.36720 491 ft 34 kts 68°
2026-05-05 07:03 43.63260 1.36901 495 ft 0 kts 139°